Tracking 31027 objects as of 18-Jul-2025
HD Live streaming from Space Station
objects crossing your sky now

GEESAT 3-06

Track GEESAT 3-06 now!
10-day predictions


NORAD ID: 61016
Int'l Code: 2024-159F
Perigee: 590.2 km
Apogee: 598.7 km
Inclination: 50.0 °
Period: 96.4 minutes
Semi major axis: 6965 km
RCS: Unknown
Launch date: September 5, 2024
Source: People's Republic of China (PRC)
Launch site: Taiyaun Space Center, China (TSC)
Your satellite tracking list
Your tracking list is empty




NASA's NSSDC Master Catalog

Two Line Element Set (TLE):
1 61016U 24159F   25199.56390808  .00002714  00000-0  27866-3 0  9996
2 61016  49.9969 195.1140 0006101 263.3609  96.6639 14.93404761 47155
Source of the keplerian elements: AFSPC